FW0960 Weather Reports


time (UTC)temp
F
wind
direction
speed
knots
gust
knots
rain 1hr
in
rain 24hr
in
rain mn
in
humidity
%
barometer
mb
20260831064829 75 250 0.0 0.0 0.00 0.00 0.00 97 1019.0
20260831064332 75 250 0.0 0.0 0.00 0.00 0.00 97 1019.1
20260831063836 75 250 0.0 0.0 0.00 0.00 0.00 97 1019.0
20260831063334 75 250 0.0 0.9 0.00 0.00 0.00 97 1019.1
20260831062333 75 250 0.0 0.0 0.00 0.00 0.00 97 1019.0
20260831061329 75 250 0.0 0.9 0.00 0.00 0.00 97 1019.1
20260831060828 75 250 0.0 0.9 0.00 0.00 0.00 97 1019.1
20260831060331 75 250 0.0 0.9 0.00 0.00 0.00 97 1019.1
20260831055832 75 250 0.0 0.9 0.00 0.00 0.00 97 1019.1
20260831055333 75 250 0.0 0.0 0.00 0.00 0.00 96 1019.0
20260831054835 75 250 0.0 0.9 0.00 0.00 0.00 96 1019.1
20260831054332 75 250 0.0 1.7 0.00 0.00 0.00 96 1019.0
20260831053829 75 250 0.0 1.7 0.00 0.00 0.00 96 1019.0
20260831053330 75 250 0.0 0.0 0.00 0.00 0.00 96 1019.0
20260831052830 75 250 0.0 0.0 0.00 0.00 0.00 96 1019.1
20260831051835 75 250 0.0 0.9 0.00 0.00 0.00 96 1019.2
20260831051332 75 250 0.0 0.9 0.00 0.00 0.00 96 1019.0
20260831050830 75 250 0.0 2.6 0.00 0.00 0.00 96 1019.0
20260831050333 75 250 0.0 2.6 0.00 0.00 0.00 96 1019.1
20260831045330 75 250 0.0 2.6 0.00 0.00 0.00 96 1019.1
20260831044829 75 250 0.0 2.6 0.00 0.00 0.00 96 1019.2
20260831044332 75 250 0.0 0.0 0.00 0.00 0.00 96 1019.2
20260831043831 75 250 0.0 0.9 0.00 0.00 0.00 96 1019.3
20260831043329 75 250 0.0 0.9 0.00 0.00 0.00 96 1019.4
20260831042833 75 250 0.0 0.9 0.00 0.00 0.00 96 1019.2
20260831042331 75 250 0.0 0.9 0.00 0.00 0.00 96 1019.3
20260831041829 75 250 0.0 0.9 0.00 0.00 0.00 96 1019.3
20260831041330 75 250 0.0 0.0 0.00 0.00 0.00 95 1019.4
20260831040834 75 250 0.0 0.0 0.00 0.00 0.00 95 1019.3
20260831040331 75 250 0.0 2.6 0.00 0.00 0.00 95 1019.4
20260831035833 75 250 0.0 2.6 0.00 0.00 0.00 95 1019.3
20260831035334 75 250 0.0 1.7 0.00 0.00 0.00 95 1019.4
20260831034837 75 250 0.0 1.7 0.00 0.00 0.00 95 1019.4
20260831034339 75 250 0.0 1.7 0.00 0.00 0.00 95 1019.3
20260831033832 75 250 0.0 0.9 0.00 0.00 0.00 95 1019.5
20260831032838 75 250 0.0 0.9 0.00 0.00 0.00 95 1019.5
20260831032331 75 250 0.0 0.9 0.00 0.00 0.00 95 1019.5
20260831031332 75 250 0.0 0.9 0.00 0.00 0.00 94 1019.5
20260831030332 76 250 0.0 0.9 0.00 0.00 0.00 94 1019.7
20260831025331 76 250 0.0 0.0 0.00 0.00 0.00 94 1019.9
20260831024832 76 250 0.0 0.9 0.00 0.00 0.00 94 1020.0
20260831024332 76 250 0.0 0.9 0.00 0.00 0.00 94 1020.0
20260831023330 76 250 0.0 0.9 0.00 0.00 0.00 94 1019.9
20260831022839 76 250 0.0 0.9 0.00 0.00 0.00 94 1020.0
20260831022334 76 250 0.0 0.0 0.00 0.00 0.00 94 1020.0
20260831021332 76 250 0.0 0.9 0.00 0.00 0.00 93 1019.9
20260831020839 76 250 0.0 0.9 0.00 0.00 0.00 93 1019.9
20260831015833 76 250 0.0 0.0 0.00 0.00 0.00 93 1020.0
20260831014833 76 250 0.0 0.0 0.00 0.00 0.00 93 1020.1
20260831014334 76 250 0.0 0.0 0.00 0.00 0.00 92 1020.2
20260831013833 76 250 0.0 0.9 0.00 0.00 0.00 92 1020.2
20260831013334 77 250 0.0 0.9 0.00 0.00 0.00 92 1020.2
20260831012833 77 250 0.0 0.0 0.00 0.00 0.00 92 1020.3
20260831010830 77 250 0.0 1.7 0.00 0.00 0.00 91 1020.3
20260831005333 77 250 0.0 0.0 0.00 0.00 0.00 91 1020.1
20260831004832 77 250 0.0 1.7 0.00 0.00 0.00 91 1020.1
20260831004332 77 250 0.0 1.7 0.00 0.00 0.00 90 1019.9
20260831003830 77 250 0.0 0.9 0.00 0.00 0.00 90 1019.9
20260831002835 78 250 0.0 0.9 0.00 0.00 0.00 90 1019.9
20260831001837 78 250 0.0 0.9 0.00 0.00 0.00 89 1019.9
20260831001334 78 250 0.0 0.9 0.00 0.00 0.00 89 1019.9
20260831000330 78 250 0.0 0.9 0.00 0.00 0.00 89 1019.8
20260830235833 78 250 0.0 0.9 0.00 0.00 0.00 88 1019.9
20260830235331 78 250 0.0 1.7 0.00 0.00 0.00 88 1019.9
20260830234332 79 250 0.0 0.9 0.00 0.00 0.00 88 1019.7
20260830233838 79 250 0.0 1.7 0.00 0.00 0.00 88 1019.7
20260830233330 79 250 0.0 1.7 0.00 0.00 0.00 88 1019.8
20260830232831 79 250 0.0 0.9 0.00 0.00 0.00 88 1019.8
20260830232331 80 250 0.0 1.7 0.00 0.00 0.00 87 1019.8
20260830231831 80 250 0.0 1.7 0.00 0.00 0.00 87 1019.8
20260830231335 80 250 0.0 0.9 0.00 0.00 0.00 88 1019.8
20260830230832 80 250 0.0 0.9 0.00 0.00 0.00 88 1019.8
20260830230334 80 250 0.0 0.9 0.00 0.00 0.00 88 1019.8
20260830225835 80 250 0.0 0.9 0.00 0.00 0.00 88 1019.7
20260830224823 80 250 0.0 1.7 0.00 0.00 0.00 87 1019.5
20260830224316 81 250 0.0 1.7 0.00 0.00 0.00 87 1019.5
20260830223812 81 250 0.0 1.7 0.00 0.00 0.00 87 1019.8
20260830223316 81 250 0.0 0.9 0.00 0.00 0.00 87 1019.8
20260830222813 81 250 0.0 0.9 0.00 0.00 0.00 87 1019.8
20260830222312 81 250 0.0 0.9 0.00 0.00 0.00 87 1019.7
20260830221807 81 250 0.0 0.9 0.00 0.00 0.00 87 1019.6
20260830220805 81 250 0.0 0.9 0.00 0.00 0.00 86 1019.4
20260830215813 82 250 0.0 0.9 0.00 0.00 0.00 85 1019.4
20260830215306 82 250 0.0 1.7 0.00 0.00 0.00 86 1019.3
20260830214801 82 250 0.0 1.7 0.00 0.00 0.00 86 1019.4
20260830213800 82 250 0.0 1.7 0.00 0.00 0.00 86 1019.5
20260830212759 82 249 0.0 1.7 0.00 0.00 0.00 86 1019.5
20260830212258 82 249 0.0 1.7 0.00 0.00 0.00 86 1019.5
20260830211806 83 249 0.0 1.7 0.00 0.00 0.00 85 1019.4
20260830211301 83 249 0.0 1.7 0.00 0.00 0.00 85 1019.4
20260830210801 83 249 0.0 0.9 0.00 0.00 0.00 85 1019.5
20260830205801 83 249 0.0 1.7 0.00 0.00 0.00 84 1019.5
20260830205255 83 249 0.0 1.7 0.00 0.00 0.00 85 1019.3
20260830204259 83 249 0.0 0.9 0.00 0.00 0.00 84 1019.4
20260830203754 83 249 0.0 1.7 0.00 0.00 0.00 85 1019.3
20260830202755 83 249 0.0 0.9 0.00 0.00 0.00 84 1019.3
20260830202257 83 249 0.0 1.7 0.00 0.00 0.00 84 1019.4
20260830201758 83 249 0.0 1.7 0.00 0.00 0.00 84 1019.5
20260830201259 83 249 0.0 0.9 0.00 0.00 0.00 84 1019.5
20260830200759 83 249 0.0 0.9 0.00 0.00 0.00 85 1019.6
20260830200255 83 248 0.0 1.7 0.00 0.00 0.00 84 1019.7
20260830195255 84 248 0.0 1.7 0.00 0.00 0.00 84 1019.7
20260830194253 83 248 0.0 0.9 0.00 0.00 0.00 86 1019.7
20260830193749 83 248 0.0 0.9 0.00 0.00 0.00 86 1019.8
20260830192315 83 250 0.9 1.7 0.00 0.00 0.00 85 1020.1
20260830191749 83 250 0.0 1.7 0.00 0.00 0.00 87 1020.2
20260830191247 83 250 0.0 1.7 0.00 0.00 0.00 84 1020.3
20260830190746 83 250 0.0 1.7 0.00 0.00 0.00 83 1020.4
20260830190250 83 250 0.0 1.7 0.00 0.00 0.00 83 1020.6
20260830185236 83 246 0.0 1.7 0.00 0.00 0.00 85 1020.6
20260830184735 83 246 0.0 1.7 0.00 0.00 0.00 85 1020.8
20260830184237 83 246 0.0 1.7 0.00 0.00 0.00 83 1021.0
20260830183735 83 246 0.0 1.7 0.00 0.00 0.00 85 1020.9
20260830183233 83 250 0.0 1.7 0.00 0.00 0.00 83 1021.0
20260830182730 83 249 0.0 1.7 0.00 0.00 0.00 83 1021.0
20260830182234 83 249 0.0 1.7 0.00 0.00 0.00 84 1021.0
20260830181733 83 248 0.0 1.7 0.00 0.00 0.00 84 1021.2
20260830181238 83 248 0.0 1.7 0.00 0.01 0.00 83 1021.2
20260830180731 83 248 0.0 1.7 0.00 0.01 0.00 83 1021.1
20260830175234 83 246 0.0 1.7 0.00 0.01 0.00 84 1021.5
20260830174729 83 246 0.0 1.7 0.00 0.01 0.00 84 1021.5
20260830174232 83 246 0.0 1.7 0.00 0.01 0.00 83 1021.6
20260830173733 82 225 0.0 1.7 0.00 0.01 0.00 83 1021.6
20260830172730 82 225 0.0 1.7 0.00 0.01 0.00 83 1021.7
20260830171731 82 225 0.9 1.7 0.00 0.01 0.00 82 1021.8
20260830171232 82 212 0.0 2.6 0.00 0.01 0.00 83 1021.7
20260830170735 82 212 0.0 2.6 0.00 0.01 0.00 83 1021.8
20260830170235 82 211 0.9 1.7 0.00 0.01 0.00 83 1021.9
20260830165733 82 210 0.0 1.7 0.00 0.01 0.00 83 1021.9
20260830165229 81 210 0.0 1.7 0.00 0.01 0.00 84 1022.0
20260830164730 81 210 0.0 1.7 0.00 0.01 0.00 83 1022.1
20260830164232 81 210 0.0 1.7 0.00 0.01 0.00 84 1022.0
20260830163728 81 210 0.9 1.7 0.00 0.01 0.00 83 1022.1
20260830163232 81 210 0.9 1.7 0.00 0.01 0.00 84 1022.2
20260830162736 81 209 0.0 1.7 0.00 0.01 0.00 85 1022.1
20260830162232 81 202 0.0 1.7 0.00 0.01 0.00 85 1022.1
20260830161729 81 200 0.0 0.9 0.00 0.01 0.00 84 1022.3
20260830160732 80 200 0.0 1.7 0.00 0.01 0.00 83 1022.5
20260830160233 80 200 0.0 1.7 0.00 0.01 0.00 84 1022.5
20260830155729 80 200 0.0 1.7 0.00 0.01 0.00 83 1022.5
20260830155235 80 200 0.0 1.7 0.00 0.01 0.00 85 1022.5
20260830154730 80 200 0.0 1.7 0.00 0.01 0.00 84 1022.5
20260830153732 79 198 0.0 1.7 0.00 0.01 0.00 85 1022.6
20260830153235 79 198 0.0 1.7 0.00 0.01 0.00 85 1022.6
20260830152729 79 198 0.0 1.7 0.00 0.01 0.00 84 1022.7
20260830152232 79 198 0.0 0.9 0.00 0.01 0.00 85 1022.7
20260830151731 79 197 0.0 1.7 0.00 0.01 0.00 86 1022.7
20260830151229 79 197 0.0 1.7 0.00 0.01 0.00 85 1022.7
20260830150728 78 190 0.0 1.7 0.00 0.01 0.00 85 1022.7
20260830150233 78 190 0.0 1.7 0.00 0.01 0.00 87 1022.7
20260830145737 78 190 0.0 1.7 0.00 0.01 0.00 86 1022.7
20260830145234 78 190 0.0 1.7 0.00 0.01 0.00 86 1022.8
20260830144731 78 190 0.0 1.7 0.00 0.01 0.00 86 1022.9
20260830144229 77 190 0.0 1.7 0.00 0.01 0.00 86 1022.7
20260830143729 77 190 0.0 1.7 0.00 0.01 0.00 88 1022.8
20260830142233 76 190 0.0 1.7 0.00 0.01 0.00 88 1023.0
20260830141731 76 190 0.0 0.9 0.00 0.01 0.00 88 1023.0
20260830141231 76 190 0.0 1.7 0.00 0.01 0.00 88 1023.0
20260830140747 76 190 0.0 1.7 0.00 0.01 0.00 89 1023.0
20260830135732 76 190 0.0 1.7 0.00 0.01 0.00 89 1023.0
20260830135231 75 190 0.0 0.9 0.00 0.01 0.00 89 1023.1
20260830134229 75 190 0.0 0.9 0.00 0.01 0.00 91 1023.2
20260830133234 74 190 0.0 0.0 0.00 0.01 0.00 92 1023.4
20260830132728 74 190 0.0 0.9 0.00 0.01 0.00 93 1023.4
20260830132232 74 190 0.0 0.9 0.00 0.01 0.00 94 1023.5
20260830131232 73 190 0.0 0.0 0.00 0.01 0.00 96 1023.6
20260830130723 72 190 0.0 0.0 0.00 0.01 0.00 98 1023.6
20260830130219 72 190 0.0 0.9 0.00 0.01 0.00 99 1023.6
20260830125716 71 190 0.0 2.6 0.00 0.01 0.00 100 1023.6
20260830125209 71 190 0.0 2.6 0.00 0.01 0.00 100 1023.6
20260830123652 70 190 0.0 0.0 0.00 0.01 0.00 100 1023.7
20260830123143 70 190 0.0 0.0 0.00 0.01 0.00 100 1023.7
20260830122643 70 190 0.0 0.0 0.00 0.01 0.00 100 1023.7
20260830122133 69 190 0.0 0.0 0.00 0.01 0.00 100 1023.6
20260830121635 69 190 0.0 0.0 0.00 0.01 0.00 100 1023.6
20260830121133 69 190 0.0 0.0 0.00 0.01 0.00 100 1023.6
20260830120632 68 190 0.0 0.0 0.00 0.01 0.00 100 1023.6
20260830115631 67 190 0.0 0.0 0.00 0.01 0.00 99 1023.6
20260830115134 67 190 0.0 0.0 0.00 0.01 0.00 99 1023.7
20260830114632 67 190 0.0 0.0 0.00 0.01 0.00 99 1023.6
20260830114134 67 190 0.0 0.0 0.00 0.01 0.00 99 1023.5
20260830113631 66 190 0.0 0.0 0.00 0.01 0.00 99 1023.5
20260830113134 66 190 0.0 0.0 0.00 0.01 0.00 99 1023.5
20260830112633 66 190 0.0 0.0 0.00 0.01 0.00 99 1023.5
20260830112131 66 190 0.0 0.0 0.00 0.01 0.00 99 1023.5
20260830111631 66 190 0.0 0.0 0.00 0.01 0.00 99 1023.8
20260830111131 66 190 0.0 0.0 0.00 0.01 0.00 99 1023.8
20260830110634 66 190 0.0 0.0 0.00 0.01 0.00 99 1023.7
20260830110131 66 190 0.0 0.0 0.00 0.01 0.00 99 1023.7
20260830105630 65 190 0.0 0.0 0.00 0.01 0.00 99 1023.8
20260830105130 65 190 0.0 0.0 0.00 0.01 0.00 99 1023.8
20260830104632 65 190 0.0 0.0 0.00 0.01 0.00 99 1023.8
20260830104131 65 190 0.0 0.0 0.00 0.01 0.00 99 1023.9
20260830103632 65 190 0.0 0.0 0.00 0.01 0.00 99 1023.6
20260830102636 65 190 0.0 0.0 0.00 0.01 0.00 99 1023.6
20260830102132 65 190 0.0 0.0 0.00 0.01 0.00 99 1023.4
20260830101634 66 190 0.0 0.0 0.00 0.01 0.00 99 1023.6
20260830101133 66 190 0.0 0.0 0.00 0.01 0.00 99 1023.6
20260830100132 65 190 0.0 0.0 0.00 0.01 0.00 98 1023.5
20260830095634 65 190 0.0 0.0 0.00 0.01 0.00 98 1023.5
20260830095132 66 190 0.0 0.0 0.00 0.01 0.00 98 1023.5
20260830094635 66 190 0.0 0.0 0.00 0.01 0.00 98 1023.5
20260830094133 66 190 0.0 0.0 0.00 0.01 0.00 98 1023.6
20260830093630 66 190 0.0 0.0 0.00 0.01 0.00 98 1023.7
20260830093131 66 190 0.0 0.0 0.00 0.01 0.00 98 1023.7
20260830092629 66 190 0.0 0.0 0.00 0.01 0.00 98 1023.6
20260830092131 66 190 0.0 0.0 0.00 0.01 0.00 98 1023.6
20260830091648 66 190 0.0 0.0 0.00 0.01 0.00 98 1023.6
20260830090131 66 190 0.0 0.0 0.00 0.01 0.00 98 1023.5
20260830085631 66 190 0.0 0.0 0.00 0.01 0.00 98 1023.5
20260830084624 66 190 0.0 0.0 0.00 0.01 0.00 98 1023.5
20260830084124 66 190 0.0 0.0 0.00 0.01 0.00 98 1023.3
20260830083619 66 190 0.0 0.0 0.00 0.01 0.00 98 1023.3
20260830082616 66 190 0.0 0.0 0.00 0.01 0.00 98 1023.3
20260830082115 66 190 0.0 0.0 0.00 0.01 0.00 98 1023.4
20260830081609 66 190 0.0 0.0 0.00 0.01 0.00 98 1023.4
20260830081108 66 190 0.0 0.0 0.00 0.01 0.00 98 1023.3
20260830080607 66 190 0.0 0.0 0.00 0.01 0.00 98 1023.3
20260830080108 66 190 0.0 0.0 0.00 0.01 0.00 98 1023.2
20260830075607 66 190 0.0 0.0 0.00 0.01 0.00 98 1023.2
20260830075119 66 190 0.0 0.0 0.00 0.01 0.00 98 1023.1
20260830074106 66 190 0.0 0.0 0.00 0.01 0.00 98 1023.1
20260830073605 66 190 0.0 0.0 0.00 0.01 0.00 98 1023.2
20260830073106 66 190 0.0 0.0 0.00 0.01 0.00 98 1023.2
20260830072556 66 190 0.0 0.0 0.00 0.01 0.00 98 1023.3
20260830071545 66 190 0.0 0.0 0.00 0.01 0.00 98 1023.6
20260830071045 67 190 0.0 0.0 0.00 0.01 0.00 98 1023.5
20260830070546 67 190 0.0 0.0 0.00 0.01 0.00 98 1023.5
20260830070040 67 190 0.0 0.0 0.00 0.01 0.00 98 1023.6